Résultats de la compétition "CF Longue Distance" du 25-08-2007 organisée par la ligue MP
     
  Télécharger le fichier CSV.  
     
     

 Circuit "A"

Licence Nom Prénom Temps CN
précédent
Score sur
la course
Différence
1729GIRSCHNicolas1:15:3569128091+1179
806BOURRINJ-Baptiste1:21:1270767531+455
747TINCHANTJohann1:23:0267827365+583
166GUEORGIOURemi1:24:4970197210+191
1284PEYVELBenoit1:27:0171547028-126
9497BOICHUTCharly1:28:13N/A6932N/A
188MAGNEThibaut1:28:3771346901-233
84COUPATVincent1:28:5467026879+177
1176PUECHMatthieu1:31:0260316718+687
2121VANNIERFabrice1:33:0268036573-230
2924CALANDOTFrancois1:36:4859906318+328
11405LOUVETFranck1:42:24N/A5972N/A
11398BOUVIERWilliam1:45:31N/A5796N/A
1518MULLERMarc1:47:0069075715-1192
11390CLEMENT-AGONIStéphane1:47:14N/A5703N/A
8019LE BORGNEJulien1:47:38N/A5682N/A
3463DECHAVANNEFranck1:50:4857625519-243
12916DANIELIgor1:51:32N/A5483N/A
1233CREFCOEURPhilippe1:51:5853105462+152
14328MONIERBenjamin1:53:16N/A5399N/A
7060CHATELONDavid1:56:32N/A5248N/A
1783FILETNicolas1:57:1159465219-727
1790FLAMENTRégis1:57:1658995215-684
4768RICARDGael1:59:30N/A5118N/A
4022DESQUEYROUXMichael2:02:0652965009-287
5121LEMENAGERMartin2:22:58N/A4278N/A
3563DUSIGNEPatrick2:23:2457114265-1446
16224LECONTESteve2:33:29N/A3984N/A
7184BLANCHARDMickaelN/AN/A0N/A
11342LECLERCThomasN/AN/A0N/A
722FLICOTEAUXRaphaelN/A52310-5231
4013CHANDEZONJ-LucN/A57220-5722
1175PUECHJ-BaptisteN/A55400-5540
2472LASOUCHEJohannN/A60320-6032
817GARDEYoannN/A62800-6280
10381BANON-SELVESThibaulN/AN/A0N/A

  Indice de confiance du circuit (moyenne des différences entre CN et score sur la course des 3 à 10 premiers) : 225




 Circuit "Abis"

Licence Nom Prénom Temps CN
précédent
Score sur
la course
Différence
8964VALLAClement1:06:43N/A7350N/A
8237RAIMBAULTJuste1:06:59N/A7321N/A
12058POUPARDThibaut1:07:19N/A7285N/A
5796MENGINBastien1:14:59N/A6540N/A
7397TRANCHANDFrederic1:15:46N/A6472N/A
6613SCHIAVOEmilien1:18:07N/A6278N/A
14526BERNARDChristophe1:19:08N/A6197N/A
12967LEPOUTREBenjamin1:19:31N/A6167N/A
3304MOUGEOTPierre1:22:3057665944+178
14380PICARDVincent1:23:03N/A5905N/A
3778RUIZLudovic1:23:4759155853-62
12934THOMASJohann1:25:34N/A5731N/A
2728PARIGOTOlivier1:25:5158385712-126
10259HAURYAndre1:26:23N/A5677N/A
7566BARLETCedric1:26:25N/A5675N/A
13090GAUDUINMaxime1:26:44N/A5654N/A
9341FENEUILJoseph1:27:17N/A5618N/A
12401KERN-GILLARDMathieu1:29:51N/A5458N/A
6999MAHIEUPierre1:29:53N/A5456N/A
4653CONTRAIREHelian1:30:31N/A5418N/A
676LESTARQUITLaurent1:31:5951565331+175
17574LEQUINTRémi1:33:25N/A5249N/A
9354LOCATELLIYann1:35:09N/A5154N/A
17775MAURIESBenjamin1:37:03N/A5053N/A
12283GERARDNicolas1:37:32N/A5028N/A
12759SCHAMBERGERPierre1:37:45N/A5017N/A
10984RIZZOTTOJulien1:38:03N/A5001N/A
8472BARBEDaniel1:39:32N/A4927N/A
5794MENGINPierre1:39:50N/A4912N/A
16940CHATELAINNicolas1:40:10N/A4896N/A
15329GOUTAUDIERChristophe1:40:19N/A4888N/A
14009FATOUXRemy1:41:07N/A4850N/A
9863VAUCHERJeremy1:41:42N/A4822N/A
17898GAINEFrancis1:42:46N/A4772N/A
1786FLAMENTClaude1:43:1244884752+264
6566GIBIATXavier1:45:11N/A4662N/A
10442KERVARECJohann1:46:24N/A4609N/A
8972LEPLATEmmanuel1:47:21N/A4568N/A
13586COMBESOlivier1:49:54N/A4462N/A
6481RORASebastien1:50:28N/A4439N/A
15855MUSCARNERALaurent1:50:30N/A4438N/A
10049CHASLOT-DENIZECedric1:50:45N/A4428N/A
9687BOTHORELPierre1:56:00N/A4227N/A
15176QUINQUENELHerve1:57:32N/A4172N/A
3580DODINChristophe2:00:2646924072-620
18336IMBERTINicolas2:00:55N/A4056N/A
219TARDYOlivier2:01:1849294043-886
4848CHASTELVincent2:03:04N/A3985N/A
7783TIRBOISMiguel2:05:43N/A3901N/A
12977BLUMSimon2:11:50N/A3720N/A
4428VERMEERSCHThierry2:11:5848513716-1135
13393GRIMAULTFreddy2:14:27N/A3647N/A
15997DESCAZAUXThomas2:14:58N/A3633N/A
13237POULAINAntoine2:15:56N/A3607N/A
11755LABONNESimon2:18:08N/A3550N/A
955PARZYCHMickael2:21:0946113474-1137
13683JANGurvan2:21:26N/A3467N/A
15452LEMBEZATYannick2:23:45N/A3411N/A
11574NOYERAnthony2:50:39N/A2874N/A
16383BIAUJ-Gabriel3:19:52N/A2454N/A
3161CATALONStephaneN/A52310-5231
3208BARTHELGuillaumeN/A39770-3977
2035BAROUXSamuelN/A46920-4692
4786DUJARDINChristopheN/AN/A0N/A
8446GIACCHIGuillaumeN/AN/A0N/A
1911MEYERKirianN/A57080-5708
1273ANTOINEThomasN/A45840-4584
17895LECLERCJessyN/AN/A0N/A

  Indice de confiance du circuit (moyenne des différences entre CN et score sur la course des 3 à 10 premiers) : 103




 Circuit "B"

Licence Nom Prénom Temps CN
précédent
Score sur
la course
Différence
205PERRINEric1:02:4166417265+624
3250BEAUVIRYannick1:13:4957276170+443
2715HABERKORNBruno1:15:2758256036+211
2150GILLARDSylvain1:18:1151595825+666
3811GRANGEREmmanuel1:18:1358615822-39
6599VERDENALBenoit1:19:19N/A5742N/A
15688COSTEJocelyn1:19:44N/A5712N/A
8181MORELFranck1:19:58N/A5695N/A
8507BRISBARESebastien1:20:03N/A5689N/A
5691RODRIGUEZStephane1:22:24N/A5527N/A
3961BOUCHETCharlotte1:23:3255645452-112
10268NOREVincent1:25:57N/A5299N/A
2120VANNIEREric1:26:3157205264-456
2739VENONDavid1:27:0544155230+815
17182PEYRINStephane1:27:36N/A5199N/A
891GOFFREAnais1:27:5756745178-496
4418ROULLANDEmmanuel1:28:2951775147-30
8203ASTRADELaurent1:28:56N/A5121N/A
14050BROCHLaurent1:29:25N/A5093N/A
17068THIERYSebastien1:30:46N/A5017N/A
10075GUITTARDJoel1:30:59N/A5005N/A
1784FILETPauline1:32:3845684916+348
9775RAVENETEric1:33:21N/A4879N/A
18552LE GALLICAndré1:33:26N/A4874N/A
4080BONODEAUGuillaume1:34:5236494801+1152
9601BESTELThierry1:35:50N/A4752N/A
1557CHATELONLucile1:36:3248864718-168
12468RADONDYDaniel1:36:34N/A4716N/A
7000GRENOUILLATLise1:37:02N/A4693N/A
17180GAILLARDDavid1:37:11N/A4686N/A
14777CHEVREUXEmmanuel1:37:24N/A4676N/A
8001VIREFLEAUKevin1:37:42N/A4661N/A
2724PALCAUValentin1:39:1445164589+73
15917KAMMERERMadeleine1:40:34N/A4528N/A
16280DANELJerome1:42:18N/A4452N/A
4677PINEAULaurent1:45:00N/A4337N/A
5139BECUCindy1:45:42N/A4309N/A
16119SENTAGNEFrancois1:46:15N/A4286N/A
6747GORGUEJean1:46:51N/A4262N/A
11391CLEMENT-AGONIBenjamin1:46:54N/A4260N/A
12681PENAUDJ-Francois1:47:38N/A4231N/A
501SERINETLaurent1:48:2140504203+153
8388LHOMBARTElsa1:54:35N/A3975N/A
2032BAROUXCeline1:55:0547663957-809
13265BAUDRITEric1:55:19N/A3949N/A
4589TANGUYGael1:56:37N/A3905N/A
6352GAYDONRegis1:59:11N/A3821N/A
13707CAVARROCJerome2:02:51N/A3707N/A
10867THEZEJulien2:04:26N/A3660N/A
14725DELCAMBREFrancois2:05:28N/A3630N/A
8508SELLIERJ-Marc2:08:16N/A3551N/A
13624SAOZANETStephane2:10:06N/A3500N/A
8748CHIRAUXAnthony2:14:10N/A3394N/A
13097MARCHERWolfgang2:22:17N/A3201N/A
302BAGUEREYBaptiste2:25:0743933138-1255
12338STRUTYNSKIRomain2:29:17N/A3051N/A
14766STUCKELBERGERNicola2:30:16N/A3031N/A
7706KOWALCZYKBenjamin3:07:55N/A2423N/A
10530BOHERFannyN/AN/A0N/A
12117BRASSARTEricN/AN/A0N/A
10379DIDYMEChristopheN/AN/A0N/A
14724DELCAMBREBenoitN/AN/A0N/A
183LINOSSIERPierreN/A51220-5122
11960GRANGAUDPatrickN/AN/A0N/A
11225BOURGEOISJ-DamienN/AN/A0N/A
2221BEAUVISAGEChristophN/A47010-4701

  Indice de confiance du circuit (moyenne des différences entre CN et score sur la course des 3 à 10 premiers) : 130




 Circuit "Bbis"

Licence Nom Prénom Temps CN
précédent
Score sur
la course
Différence
4837D'HARREVILLEKarine1:09:51N/A6310N/A
8837HULSERaymond1:13:23N/A6006N/A
8422VUITTONChristophe1:15:54N/A5807N/A
3134LALEVEEJ-Charles1:16:1955055775+270
2409POGUPhilippe1:17:0849035714+811
9365BARLETGaelle1:17:48N/A5665N/A
8354OBSTETARMarc1:18:16N/A5631N/A
2321DENAIXMichel1:20:2053325486+154
787MASONIBruno1:27:1055775056-521
1947POULAINJoel1:27:2551345042-92
18094DE RAMBURESAlbéric1:27:43N/A5024N/A
3101LONGAAlain1:29:3747294918+189
1658SPANIERLuc1:30:0343334894+561
7702RORAJose1:30:40N/A4861N/A
8253MIOTTOElodie1:30:54N/A4848N/A
8727GAILLARDAmbre1:31:31N/A4816N/A
13217VERCELLOTTILea1:34:01N/A4688N/A
7877VANDEWEEGHEVincent1:35:42N/A4605N/A
12558DUBOISPhilippe1:35:43N/A4604N/A
890GODEFROYRene1:37:0545314540+9
1808GUTSCHENRITTERGuy1:37:0951904537-653
1910MEYERJ-Marc1:37:3149624519-443
8104ABELCelie-Anne1:38:40N/A4467N/A
9927MARTINJ-Charles1:39:10N/A4444N/A
312JOLYThierry1:39:1147694444-325
18306MONNOTGilbert1:39:18N/A4438N/A
2759PAPILLONCecile1:40:1249014398-503
3546GIBIATFrederic1:40:4543344374+40
11440DUPOIRIEUXGilles1:41:38N/A4336N/A
7092MENGINRoland1:41:55N/A4324N/A
2372DIETSCHBernard1:42:4450374290-747
8947BOULANGERPatrick1:43:14N/A4269N/A
9460MONTEMONTPatrice1:43:15N/A4269N/A
14310RAOUXPierre1:44:44N/A4208N/A
11382VERDINSerge1:45:10N/A4191N/A
8240RAYMONDAUDJacques1:45:35N/A4174N/A
10034FABREMichel1:46:07N/A4153N/A
4470DUPRONPascal1:46:2746224140-482
3991MOLINIERLea1:48:1051874074-1113
8744MARIONJ-Marc1:51:13N/A3963N/A
13245POYARDJ-Claude1:51:55N/A3938N/A
12055POUPARDAlain1:53:52N/A3871N/A
10499LENNHOLMMorten1:57:04N/A3765N/A
15498GIRARDRegis1:58:53N/A3707N/A
7301DUPOIRIEUXCloe1:59:09N/A3699N/A
15322AVIRONMichel1:59:50N/A3678N/A
10517ROGERJ-Pierre2:00:49N/A3648N/A
12963CASTIERPhilippe2:06:30N/A3484N/A
6256FABREGATPascal2:08:13N/A3437N/A
17159SARIONPhilippe2:10:54N/A3367N/A
5137AVEDIKIANNicolas2:11:17N/A3357N/A
14947JOUVEBernard2:12:58N/A3315N/A
7854BOUDETJ-Marc2:14:12N/A3284N/A
1850GARRECChristian2:14:4428853271+386
7388PORNETPatrick2:17:27N/A3206N/A
10367SIAUDPhilippe2:19:15N/A3165N/A
465LOPEZAlain2:20:0039123148-764
15384MARIEKarl2:21:29N/A3115N/A
17585RAULTPatrick2:26:10N/A3015N/A
10744MAINELaurent2:26:42N/A3004N/A
13619GADEAUGerard2:31:21N/A2912N/A
11088LE BORGNEPascal2:31:45N/A2904N/A
11443PASQUIERMarc2:35:54N/A2827N/A
9423BACHELETPatrice2:44:05N/A2686N/A
15923FRANQUINPascal2:50:08N/A2590N/A
7945PERROCHONMichelN/AN/A0N/A
11141VIREFLEAUJ-MarieN/AN/A0N/A
11472LACASSINRobinN/AN/A0N/A
12725PERCHERobertN/AN/A0N/A
17080SCHAMBERGERDanielN/AN/A0N/A
1593DELENNEPierreN/A58360-5836

  Indice de confiance du circuit (moyenne des différences entre CN et score sur la course des 3 à 10 premiers) : 123




 Circuit "C"

Licence Nom Prénom Temps CN
précédent
Score sur
la course
Différence
8695BASSETLucas0:57:45N/A7085N/A
11420RINGOTMathieu0:59:39N/A6860N/A
4220FLEURENTTheo1:01:3371396648-491
1763PAGEPhilippe1:01:4361686630+462
6523WYMEREddie1:01:54N/A6610N/A
3677GIROUXJ-Daniel1:02:4557956521+726
12868FUMEYClément1:04:41N/A6326N/A
9351CALANDRYChristophe1:07:35N/A6054N/A
12679MARCHEGAYBruno1:08:20N/A5988N/A
10329ARNOULDVincent1:08:31N/A5972N/A
15500GIRARDJulien1:10:15N/A5825N/A
8083POINSIGNONVincent1:11:55N/A5690N/A
4082LEROUXBruno1:12:5349695614+645
2936SANDEVOIRBenoit1:13:0952715594+323
736POURREAlain1:13:1658905585-305
13620VIELBrieuc1:13:36N/A5559N/A
2796LEGALLAISJ-Luc1:14:0248645527+663
2071GOUYERRobyn1:14:1854475507+60
6567GIBIATAurelien1:14:41N/A5479N/A
5421LOTERIEJ-Francois1:15:53N/A5392N/A
14105PEYCLITJacques1:15:59N/A5385N/A
273FIGUIEREPascal1:16:0747885376+588
4689CORNUFrancis1:16:20N/A5360N/A
8601BOULESTREAUPhilippe1:16:25N/A5354N/A
12231ELIASPierre1:16:48N/A5328N/A
14282CRESPINCelestin1:17:19N/A5292N/A
1365LEJEUNEBruno1:17:5053505257-93
13040VILLARChristophe1:18:06N/A5239N/A
13278TAELEMANSPhilippe1:19:11N/A5167N/A
1186JANANDPatrick1:19:1550675163+96
2953VUILLEMINMichel1:19:5152135124-89
12057POUPARDStephane1:20:26N/A5087N/A
7251GRUSELLEFabien1:20:54N/A5058N/A
6108DODIERRodolphe1:21:48N/A5002N/A
3201RAUTURIERChristophe1:22:1851414972-169
13020REVEILLONAnthony1:22:46N/A4944N/A
16233DEPRETThomas1:23:02N/A4928N/A
7610HEROUARDThierry1:24:53N/A4820N/A
7835PERROCHONThomas1:25:00N/A4814N/A
18884GARCIA PAREDESJose Antonio1:25:01N/A4813N/A
8426MORELLudovic1:25:52N/A4765N/A
276FLEURENTDominique1:26:0152114757-454
10089ROCHERobert1:26:30N/A4730N/A
16271COTTRETBruno1:26:42N/A4719N/A
8984TRAENSArnaud1:26:52N/A4710N/A
3818BASSETOlivier1:27:3051334676-457
5676BALLIOTYvan1:28:03N/A4647N/A
12766LOGERobert1:28:19N/A4633N/A
2257NOBILIJacques1:29:3849214565-356
3407FLAMBEAUBruno1:29:5151144554-560
15281COUREAUBenjamin1:30:11N/A4537N/A
1814LERICHEFranck1:30:2442244526+302
11742MAGLIONEEric1:30:25N/A4525N/A
16508PELLINBertrand1:30:42N/A4511N/A
11829DANIELEric1:31:08N/A4490N/A
7569PERRINGuillaume1:31:21N/A4479N/A
11513HAURYGilles1:32:04N/A4444N/A
11919REMOUETMichel1:34:35N/A4326N/A
9401LE DREAUCorentin1:38:18N/A4162N/A
13497CAPISANIMarc1:40:38N/A4066N/A
17587CORDESSEOlivier1:41:13N/A4043N/A
12236SUDRESAdrien1:41:53N/A4016N/A
2407MAGINOTFrancis1:42:0436864009+323
15014GUINOTPascal1:43:36N/A3950N/A
537MOUTAULTPascal1:44:0349193932-987
14507PERROGONFrederic1:44:29N/A3916N/A
1193JOUBERTMichel1:44:4140433909-134
814DEVRIEUXRobin1:44:4648123906-906
13673BLUMJean-Guy1:47:06N/A3820N/A
1592DELENNEMatthieu1:48:5238563758-98
7094MENGINThomas1:51:11N/A3680N/A
8366LIEGEOISDenis1:51:30N/A3670N/A
6876CARESIOLeo1:52:45N/A3629N/A
10270CRABOSVincent1:56:30N/A3512N/A
3558LONGALaurent1:56:3545383510-1028
13846VERDINBaptiste1:57:17N/A3489N/A
14506RICHARDAUDBruno1:57:57N/A3469N/A
15669CHANDEYSSONLuc1:58:22N/A3457N/A
3413HUROTMichel1:58:5341763442-734
17780DUMONTJulien1:59:20N/A3429N/A
6119HINAULTYvan2:02:49N/A3332N/A
13708DAYMAOlivier2:03:45N/A3306N/A
12162LAPASSETKevin2:05:31N/A3260N/A
2379BILQUEZEric2:05:3644523258-1194
12052PEZETLois2:07:19N/A3214N/A
16234DOLCIMathias2:08:39N/A3181N/A
13845PRETETJ-Claude2:08:46N/A3178N/A
10901RAVENELPhilippe2:12:07N/A3097N/A
6040LACOSTEBruno2:12:53N/A3079N/A
10695THERRYGilles2:20:47N/A2906N/A
12846LHERMITTEFrederic2:26:16N/A2797N/A
16394FOLThierry2:30:21N/A2721N/A
15058GRANGIERPhilippe2:34:46N/A2644N/A
16230BATELIQuentin3:09:59N/A2154N/A
4357ROULLEAUXAlainN/A46580-4658
7019CASTAINGOlivierN/AN/A0N/A
8161BOUETYohannN/AN/A0N/A
12965SANDERBastienN/AN/A0N/A
17790PICAZOJ-JacquesN/AN/A0N/A

  Indice de confiance du circuit (moyenne des différences entre CN et score sur la course des 3 à 10 premiers) : 61




 Circuit "D"

Licence Nom Prénom Temps CN
précédent
Score sur
la course
Différence
2179OLIVIERSandra1:08:3145845061+477
702WYMERIsabelle1:09:3349634986+23
18133VILLARAurélie1:10:07N/A4946N/A
2731PERRINOdile1:11:3848364841+5
7979CHRISTSarah1:15:51N/A4572N/A
16117TARDYLaetitia1:17:12N/A4492N/A
8952LEMAIRECecilia1:17:16N/A4488N/A
2722PARIGOTVirginie1:17:3448194471-348
16297LAROCHEMaroussia1:18:36N/A4412N/A
13244VARRONStephanie1:19:43N/A4350N/A
2717HABERKORNValérie1:19:5342854341+56
8445FINASCeline1:20:09N/A4326N/A
12528LAVETTIEmmanuelle1:20:29N/A4309N/A
14238PARISMarie1:20:44N/A4295N/A
6857DUBOURGElsa1:21:12N/A4270N/A
1225PEREIRANadine1:22:3244034201-202
12179MICHONNEAUAnne1:22:38N/A4196N/A
6064GREBELLaurence-Marie1:22:46N/A4190N/A
14776LLUELLCeline1:22:49N/A4187N/A
14675COQUETChristelle1:23:53N/A4134N/A
14158CHEVRIERStephanie1:24:20N/A4112N/A
6805DELIEREBarbara1:24:40N/A4096N/A
8067IZARDAurelie1:24:52N/A4086N/A
2892MOULIERECamille1:25:2442644060-204
14582LAZARDTiphaine1:26:02N/A4031N/A
14676BORCHORST RICARDClarissa1:26:09N/A4025N/A
720CLOEZVeronique1:27:0836263980+354
4855GARNIERLaura1:28:13N/A3931N/A
745TINCHANTEstelle1:29:2942103875-335
17933LEGENDREM-Noelle1:32:37N/A3744N/A
13243MACABIAUEmilia1:32:45N/A3739N/A
15672CASSANDelphine1:33:03N/A3727N/A
6995DECARPIGNYGwladys1:33:09N/A3723N/A
11796LABONNEMayeulle1:34:54N/A3654N/A
16384BONNETCecile1:35:05N/A3647N/A
1928CHAILLARDMarketa1:35:2839723632-340
743RIZZOTTOHelene1:36:0336213610-11
15944CLASQUINMarie1:39:13N/A3495N/A
2375MAKOVICKAEdwige1:40:3529123448+536
1040BRAULTM-Christine1:41:2839103418-492
12842RODRIGUEZDelphine1:41:28N/A3418N/A
7852TASSINElodie1:41:30N/A3416N/A
4724DUFOURBarbara1:42:41N/A3377N/A
632DUBROCAChristele1:43:5135343339-195
13203CAPELLECecile1:45:04N/A3300N/A
7614BRUNETIsabelle1:45:58N/A3272N/A
11476DEBOCQMAINEAgnes1:46:07N/A3268N/A
11495DELENNEA-Francoise1:47:53N/A3214N/A
9870LE-GOALLECAnaïs1:48:05N/A3208N/A
10885MASSONClaire1:48:23N/A3199N/A
14391GUNDOLFKatherine1:49:32N/A3166N/A
14439BARREDALaure1:50:52N/A3128N/A
15183COUESPELSophie1:51:17N/A3116N/A
14246CARRIERValerie1:51:43N/A3104N/A
7410LE ROUXIsabelle1:52:07N/A3093N/A
5485SERINETCarole1:52:11N/A3091N/A
15655PENNETCeline1:53:31N/A3055N/A
912LOUVETEloise1:53:5329023045+143
13850CAGNARDNathalie1:54:04N/A3040N/A
13833TRIMAILLEIsabelle1:54:06N/A3039N/A
13684BARTHESMarie1:57:42N/A2946N/A
1746GEHINChristine2:02:1836872835-852
16532VIOLLOTAriane2:02:54N/A2822N/A
17764CHOUKROUNGyongyike2:03:40N/A2804N/A
18059BRUNDU-LEMAIRESarah2:07:02N/A2730N/A
7048HAGARDVirginie2:10:48N/A2651N/A
16229VERCAUTERENM-Claude2:14:10N/A2585N/A
3678GIROUXSandrine2:20:4525772464-113
14939FOL-RIBETHelene2:22:54N/A2427N/A
1698MALATRAYAnne2:24:1830272403-624
14544DOGUETSylvie2:28:17N/A2339N/A
12343MALASSIGNEElfege2:48:32N/A2058N/A
18883VIELAnita2:53:38N/A1997N/A
8536BEAUVIRLaurence3:33:47N/A1622N/A
17586SEYVELinda3:43:11N/A1554N/A
10684ROCHESandrineN/AN/A0N/A
16801ASTOULSandrineN/AN/A0N/A
9589CAZESCelineN/AN/A0N/A
16896PAULUSDelphineN/AN/A0N/A
17309BESTELFlorenceN/AN/A0N/A
189MANISSOLLEChloeN/A41530-4153
1401DESCAZAUXSlanyN/AN/A0N/A
13351DRUZETICCeciliaN/AN/A0N/A
5499THOMASMicheleN/AN/A0N/A
896HADJIANGELISSophieN/A42670-4267
16105REMILLEUXAngeliqueN/AN/A0N/A

  Indice de confiance du circuit (moyenne des différences entre CN et score sur la course des 3 à 10 premiers) : 53




 Circuit "E"

Licence Nom Prénom Temps CN
précédent
Score sur
la course
Différence
139CACHARDChristian0:55:4550135917+904
1848DERMINEJean0:57:2452315747+516
8106LELOUPMarine0:59:44N/A5522N/A
1884DUBOCMichel0:59:4455655522-43
2480SCHMIDTJacques1:01:2854165366-50
8514VASSYMargaux1:01:58N/A5323N/A
1656MENUTJ-Claude1:03:3141125193+1081
2328MOISSETJacques1:03:3247685192+424
5168JACQUESSONGilles1:04:42N/A5098N/A
954PARZYCHMichel1:04:5150345086+52
1971CHARRIERDaniel1:04:5249305085+155
12773OBSTETARPerrine1:06:43N/A4944N/A
2760PAPILLONDaniel1:07:1749094903-6
2440MASSONPhilippe1:07:2048674899+32
3526BRISEPIERRERichard1:07:5040254863+838
3312CORDIERJacques1:08:2546124821+209
8567BARDESPhilippe1:09:26N/A4751N/A
801BARRIERMarianne1:09:5444864719+233
1398HERMETAndre1:10:4045124668+156
4059FAIVREDaniel1:11:1639744628+654
1577VINCENTMichel1:11:2257024622-1080
9646GEREAUDGuy1:11:32N/A4611N/A
1847DERMINEIsabelle1:11:4941674593+426
7573OUDINBernard1:12:28N/A4552N/A
1509AUBRYMaurice1:13:4438354474+639
4751ROIRANDLine1:13:53N/A4465N/A
2378MAKOVICKAVeronique1:14:0340984455+357
9924BOICHUTIsabelle1:14:06N/A4452N/A
193MANISSOLLEYves1:14:1754784441-1037
706BACHEREdith1:15:5147534349-404
2920ANTOINEChristine1:15:5348194347-472
12288FOULET-MOREAULauria1:15:56N/A4344N/A
2712VUILLETChristian1:16:0144104339-71
320BAGUEREYGilles1:16:5742234287+64
9472JOUZEAUGeorges1:17:49N/A4239N/A
1955WIBARTHelier1:17:5943224230-92
886GIRECamille1:17:5937214230+509
1124BENEVELLOOlivier1:18:0342544226-28
4354DURANDPhilippe1:18:1243214218-103
16588BESCHFrederic1:18:31N/A4201N/A
2300BUZONRobert1:18:4746334187-446
18592FLORIOTOlivier1:18:59N/A4176N/A
9396LE DREAUJ-Claude1:19:03N/A4173N/A
10725MOUGELLyse1:19:07N/A4169N/A
800BARRIERCarole1:19:1932494159+910
9424BACHELETValerie1:19:30N/A4149N/A
132BODELETHerve1:19:4938014133+332
10496DUPOIRIEUXSophie1:20:03N/A4121N/A
3254DARTHIAILJean-Paul1:20:0545664119-447
10560MARTINBernard1:20:16N/A4110N/A
12771OBSTETARAnne1:20:22N/A4104N/A
724LAURENTPhilippe1:20:3635194093+574
9723FENEUILBlandine1:20:49N/A4082N/A
5906D'HARREVILLEAurelie1:21:10N/A4064N/A
2929DESLANDESGilles1:21:1033064064+758
3443BEZIRDJOGLOUPhilippe1:21:1644154059-356
15015GUINOTVéronique1:21:28N/A4049N/A
1707ROBINPatrick1:22:1040994014-85
3415PIERRONClaude1:22:3039503998+48
14588BATTISTAJ-Francois1:22:37N/A3993N/A
8543HEROUARDNina1:23:03N/A3972N/A
7911PERRINJ-Luc1:23:12N/A3965N/A
14302CAMPBELLNick1:23:19N/A3959N/A
1367MOLINIERJ-Luc1:23:4735153937+422
14648DIDOUSophie1:24:17N/A3914N/A
10903RAVENELManon1:25:02N/A3879N/A
2782REMOUETM-Pierre1:25:0545003877-623
7215LEROYJacques1:26:09N/A3829N/A
2573DURRENSRemy1:26:3746143808-806
3057DELATOURChristiane1:26:5343073797-510
17789PICAZOSophie1:27:22N/A3776N/A
274FIGUIEREValerie1:27:4032993763+464
2857LEROUXJacques1:27:4146523762-890
2926CALANDOTJ-Pierre1:27:5045493755-794
1673ANNERoger1:28:1238323740-92
1635MAGDINIERGilles1:28:2044443734-710
8183KORUSJ-Luc1:28:37N/A3722N/A
7114HINAULTEmmanuelle1:29:09N/A3700N/A
1005ALLANCONMichel1:29:1242103698-512
6610CHANTELOUAnnie1:30:08N/A3660N/A
146COUPATGerard1:30:2138383651-187
2679KIEFFERJ-Paul1:31:0733063620+314
8385BOURLANDJ-Marie1:31:42N/A3597N/A
9235CORDEIRO MENDESMyriam1:32:04N/A3583N/A
2377MAKOVICKAVanessa1:32:0437633583-180
7703RORAIsabelle1:32:04N/A3583N/A
13692HAURYEvelyne1:32:20N/A3572N/A
1906MERTZAndre1:32:3540683563-505
7409LE ROUXAnne-Francoise1:33:01N/A3546N/A
11994SINOUNolwenn1:33:37N/A3523N/A
8791GEORGEMyriam1:34:18N/A3498N/A
1605LEPOUPONAndre1:35:0537563469-287
7295JOUBERTManuela1:35:41N/A3447N/A
6478D'HARREVILLEAnne1:35:43N/A3446N/A
5463DENAIXOriane1:35:56N/A3438N/A
1909MEYERCorinne1:36:2030553424+369
12060PITAVALSylvie1:37:24N/A3387N/A
5533THIEBAULTJ-Philippe1:37:29N/A3384N/A
923PREVOSTPatrick1:37:3346493381-1268
9933BASSETSylvie1:37:49N/A3372N/A
3356CHARIAUMichel1:39:0628163329+513
1956WIBARTMartine1:39:1038713326-545
8648VALCHERAClaire1:39:17N/A3322N/A
1739CAMPOSJ-Pierre1:42:0841523230-922
4272CLERCAnne1:42:4334083211-197
3200RAUTURIERNathalie1:43:1631933194+1
4734KOWALCZYKFrancis1:43:20N/A3192N/A
809BOURRINMichel1:43:3924423182+740
4810GROCAlain1:43:45N/A3179N/A
12192LOUATAime1:44:12N/A3166N/A
9406AVEDIKIANRachel1:44:19N/A3162N/A
12356RINGOTVeronique1:45:20N/A3132N/A
6885JAOUENDenis1:45:21N/A3131N/A
1948POULAINOdile1:46:3128293097+268
8101FREDERIQUEClaude1:46:53N/A3086N/A
3262DELALANDEJoel1:47:0930513078+27
9352CALANDRYLucia1:47:40N/A3064N/A
12337LAUTISSIERLaure1:48:32N/A3039N/A
5141MARTINGilbert1:48:54N/A3029N/A
8724GAILLARDJ-Marie1:49:02N/A3025N/A
9949ILLESJoel1:49:21N/A3017N/A
7044LOTERIEMurielle1:50:42N/A2980N/A
11369GUIGNARDM-Christine1:51:08N/A2968N/A
12763LASSEIGNELaurent1:51:47N/A2951N/A
8894CRUBILELaurence1:52:13N/A2939N/A
813COMBETAnnie1:52:1736312938-693
10283GRATIENNathalie1:52:33N/A2931N/A
12646BLUMVirginie1:53:53N/A2896N/A
738POURREValerie1:54:4241532876-1277
14741BRABANTGuy1:54:57N/A2870N/A
8254MIOTTOEmeline1:55:15N/A2862N/A
14946LEVREUXNathalie1:55:18N/A2861N/A
3086JEQUELYann1:55:3736992853-846
1611LOPEZBernard1:56:07N/A2841N/A
8920TOUZAIN ROULLEAUXIsabelle1:56:16N/A2837N/A
6113GROCClaire1:56:35N/A2829N/A
2884LECOYERRegis1:56:3730402829-211
122MIREMENDEJ-Pierre1:56:4537352825-910
310JOLYMauricette1:57:2827972808+11
10146ETIENNEDominique1:57:41N/A2803N/A
9200PERCHEMelanie1:58:23N/A2786N/A
10639BOULANGERIsabelle1:59:04N/A2770N/A
12715BOCQUETPascale1:59:13N/A2767N/A
13637KORCHAKLena2:01:14N/A2721N/A
10902RAVENELVeronique2:01:19N/A2719N/A
10918POCIELLOChristian2:02:18N/A2697N/A
17094JUSSIAN-SOGNOSylvie2:02:34N/A2691N/A
4391DODINYves2:03:1331242677-447
4690JOUBERTMonique2:04:38N/A2647N/A
9114RAYMONDAUDSylvie2:04:44N/A2644N/A
7216LEROYOdile2:06:20N/A2611N/A
12282GERARDNathalie2:07:05N/A2596N/A
16136LAZZERAntoinette2:10:48N/A2522N/A
3414HUROTFlorence2:10:5129342521-413
740RUAUDAlain2:10:5938262518-1308
10979LEMAIRENathalie2:12:34N/A2488N/A
18150TISSEYRE-BOPPBénédicte2:12:41N/A2486N/A
16352BAUDOINJ-Paul2:14:31N/A2452N/A
15092VILLEDIEUJ-Luc2:15:44N/A2430N/A
8981PERROCHONFrancoise2:17:44N/A2395N/A
387AUROUZEGuy2:18:1933562385-971
12359BAYLEOdile2:18:51N/A2376N/A
1701MALATRAYNicole2:19:4632332360-873
14786LOPEZSvetlana2:23:27N/A2299N/A
9523WULLUSJ-Noel2:24:25N/A2284N/A
15228CHAUVINEAUChristine2:25:27N/A2268N/A
14312SEGRETBrigitte2:26:41N/A2249N/A
17093SOGNOJ-Marc2:28:18N/A2224N/A
12767LOGESophie2:29:54N/A2201N/A
8492DAVIDJeanne2:31:31N/A2177N/A
14983SARIONArmelle2:32:17N/A2166N/A
8491COUDERTCathy2:38:43N/A2078N/A
16127LEMBEZATChristian2:39:48N/A2064N/A
11496DESCAMPSAurore2:48:03N/A1963N/A
2582PRADOM-Emma2:59:4016131836+223
16863BRESOLINCorinne3:06:03N/A1773N/A
3429SERREFrancine3:10:2017521733-19
11089LE BORGNESylvie3:22:20N/A1630N/A
16198BORDESFannyN/AN/A0N/A
2034BAROUXJackyN/A52950-5295
3990MOLINIERFrederiqueN/A28420-2842
14179PERCHEFrancoiseN/AN/A0N/A
18596LUXCEYValérieN/AN/A0N/A
17228JORDAN-PERINNathalieN/AN/A0N/A
8725GAILLARDAnnieN/AN/A0N/A
1220PEREIRAJ-ClaudeN/A48340-4834
4866BRUNERIEAlainN/AN/A0N/A
16572PAYSSANMarie FranceN/AN/A0N/A
406TREZEGUETCatherineN/A21240-2124
998DEVOYONChristianN/A41160-4116
2376MAKOVICKALiborN/A39660-3966
15180DESLANDESMarionN/AN/A0N/A
3461DECHAVANNEJ-FrancoiN/A49120-4912
15464MENOCHETAudreyN/AN/A0N/A

  Indice de confiance du circuit (moyenne des différences entre CN et score sur la course des 3 à 10 premiers) : 36




 Circuit "F"

Licence Nom Prénom Temps CN
précédent
Score sur
la course
Différence
1843BOUSSEREtienne0:42:5357465528-218
2789EVENGabriel0:44:1944705349+879
3303MOUGELGabriel0:45:2647975218+421
5938EGGLIRoland0:47:14N/A5019N/A
922PREVOSTPascale0:47:1947985010+212
2119VANNIERBernard0:48:0641824929+747
1270ANTOINEAlain0:50:2642464701+455
1993PERICHONBernard0:50:4552814671-610
2738VENONGerard0:52:0055914559-1032
1086ROBERTChristian0:52:0543664552+186
1347SINIBALDIMarc0:52:1842254533+308
2400BONNETChristine0:52:2042434530+287
3163COLOMBETChristian0:53:0044084473+65
4156RICHAUDAlain0:54:0240744387+313
1583TAILLANDIERGuy0:54:2447814358-423
965LAVIELLEAlain0:55:5145144245-269
1643MARINSEKJosef0:57:1230344144+1110
2401DEVILLENelly0:57:2736754126+451
1672ANNEBrigitte0:59:2438253991+166
2519DIRRINGERJacques1:00:2935463919+373
655QUEYROIHenri1:00:3839143910-4
746TINCHANTJ-Marc1:01:0636953880+185
2571DURIEUXPierre1:02:0141733823-350
1363FERRAGERene1:02:1430673809+742
1152DELIFrancoise1:02:2536433798+155
1381DIEUDONNERoland1:02:4037423783+41
95CABONHerve1:02:5137343772+38
3515ILLESDominique1:03:0334733760+287
646LARMINACHAndre1:03:4232253722+497
2533MONTANARIColette1:04:0132203703+483
1276ANTOINERegis1:05:2635883623+35
2558VOGTClaude1:05:3440093616-393
15785HANSENViggo1:06:29N/A3566N/A
703ABISSEJacques1:06:5440003544-456
10321ROUPIOZJocelyne1:06:55N/A3543N/A
962GERBAUTJ-Pierre1:07:1939243522-402
5508DEUBELBEISSAlain1:08:38N/A3454N/A
633DUBROCAMonique1:08:5345193442-1077
3651VAGNERChristine1:09:0643813431-950
4389THIEBAULDGeorges1:09:2035353419-116
8868BRAMASRenee1:10:21N/A3370N/A
2188SIMONMichel1:10:3331883360+172
1693BAUDRYJ-Claude1:10:4530203351+331
626COURNUTAlain1:11:2838033317-486
5607LAMBERTNadine1:12:16N/A3280N/A
249GANDONJ-Claude1:13:2436163230-386
13598BERJOANClaudie1:13:25N/A3229N/A
2817CROCHETGerard1:14:4036933175-518
17406CAMPBELLJane1:15:23N/A3145N/A
8761BRUNELMarie-Jo1:16:20N/A3106N/A
1400HERMETM-Pierre1:16:3328943097+203
326BERBETTGabriel1:17:0826493073+424
4597CERETMartine1:17:15N/A3069N/A
2532MONTANARIClaude1:17:2929843060+76
5597EJSMONTJean1:17:48N/A3047N/A
930SIMONETJean1:17:4940923046-1046
3547GIBIATDanielle1:17:5328843044+160
2070GOUYERTherese1:18:2226823025+343
11530GIBOURYGregorine1:18:35N/A3017N/A
1052DOMENICIJ-Claude1:19:5934122964-448
1992MOULINPatricia1:20:4736212935-686
145COUPATCatherine1:22:5025882862+274
9284WALTERMartine1:23:37N/A2835N/A
15630DIRRINGERM-Claude1:25:11N/A2783N/A
642IZINGEtienne1:25:5025962762+166
9364BARLETNancy1:26:12N/A2750N/A
9368BLAUDEZAlain1:27:10N/A2720N/A
14584FERRATONGenevieve1:27:16N/A2717N/A
935TESTOUDPhilippe1:27:4431952702-493
96CABONMonique1:27:5023182699+381
11071POINSENOTRoger1:28:11N/A2688N/A
1840BIGOTGeorges1:29:0128742663-211
396BLASCOSerge1:31:0137242605-1119
14876CAZALADominique1:31:45N/A2584N/A
386DEMONTFrancette1:32:0830682573-495
18392BAYLOTChristine1:33:08N/A2545N/A
2885LECOYERAnnick1:33:1224252544+119
1706PENALVARoger1:34:1126242517-107
10101FREDERIQUEMaria1:35:12N/A2490N/A
15324ETIENNEBernadette1:35:18N/A2488N/A
2387SUTTEROdile1:35:2523622485+123
3177RICHARDBernard1:35:3033262482-844
2124VANNIERVictorine1:35:5121752473+298
6491ROBERTFrancoise1:35:51N/A2473N/A
2445RIFFARDJ-Claude1:37:2830562432-624
13776GESRETLaetitia1:37:54N/A2421N/A
807BOURRINM-Francoise1:38:4925742399-175
1297GARROSFrancis1:39:5117202374+654
2485JOLYAlain1:39:5624952372-123
739RUAUDAgnes1:41:4624932329-164
2761PAPILLONFrancoise1:42:0722602321+61
8386BOURLANDMartine1:46:42N/A2222N/A
3370GAWSEWITCHGerald1:47:3722842203-81
7574OUDINM-Reine1:50:47N/A2140N/A
9397LE DREAULiliane1:53:10N/A2095N/A
14002DUBOISSylvie1:57:28N/A2018N/A
1298GARROSJocelyne1:58:2426082002-606
3462DECHAVANNEDenise1:59:0515121991+479
17265RAULTMonique1:59:06N/A1990N/A
4733KOWALCZYKCorinne2:02:55N/A1929N/A
2439MASSONPatricia2:04:2522301905-325
13991POUPIERClaudine2:17:59N/A1718N/A
13752VILLEDIEUMartine2:26:33N/A1618N/A
16126LEMBEZATChristine2:31:54N/A1561N/A
16154TOMEOEricN/AN/A0N/A
939VARDANEGAOdileN/A27020-2702
1787RUFFIERDominiqueN/A33240-3324
363THIERRY-FISCHERChriN/A34930-3493
1087ROBERTMartineN/A32320-3232
16634BAUDOINAnnieN/AN/A0N/A
15398GALETIsabelleN/AN/A0N/A
12056SCHMITT-POUPARDFlorenceN/AN/A0N/A
17397AVIRONM-ThereseN/AN/A0N/A
1599JOUVEColetteN/A26670-2667

  Indice de confiance du circuit (moyenne des différences entre CN et score sur la course des 3 à 10 premiers) : 75




 Circuit "G"

Licence Nom Prénom Temps CN
précédent
Score sur
la course
Différence
1380DIEUDONNEMadeleine0:49:3640004638+638
5033THIEBAULTMonique0:54:35N/A4215N/A
2716HABERKORNDidier0:58:0041113966-145
1877BAUJARDYves0:58:0629703959+989
5167BORRELLIBernadette1:01:24N/A3747N/A
116PIGERAlbert1:04:1134383584+146
3302JEANPIERREM-Therese1:08:0429903380+390
3179RICHARDClaudette1:08:2925953359+764
2557VOGTChristiane1:12:3033293173-156
395BLASCONicole1:13:1930483138+90
1000LEFOUESTJoseph1:15:0234333066-367
14235ANFOSSIGiuseppe1:16:06N/A3023N/A
1438BOUSQUETMichel1:16:2326853012+327
5497COCAULTYvonne1:16:26N/A3010N/A
12687POUCHATValerie1:17:10N/A2981N/A
15274VERDINChristine1:18:20N/A2937N/A
956CHAMBONChristian1:19:5833402877-463
3619LAGOIDETColette1:25:4824992681+182
6886FRANTZFrancoise1:26:35N/A2657N/A
701ABISSEGisele1:28:5828502586-264
2680KIEFFERMireille1:29:3028672570-297
2888MOULIEREM-Bernadett1:29:3835242567-957
6980BIGOTYvette1:30:50N/A2533N/A
295PEETERSSimone1:33:4929232452-471
643IZINGGenevieve1:37:1123352367+32
4490THIEBAULTM-Paule1:37:5820272348+321
512BOCHETRoland1:39:4926402305-335
117PIGERGhislaine1:40:2622922291-1
2446RIFFARDM-Lucie1:44:5026602194-466
11368LAUNEYNoella1:53:31N/A2027N/A
16155ELOY-TOMEOChristine1:54:37N/A2007N/A
725LAURENTTherese2:02:2624051879-526
934TESTOUDMadeleine2:02:4122031875-328
1001LEFOUESTM-Therese2:09:5724111770-641
1098MULLERM-Anne2:15:0416811703+22
10804DAVIDSimone2:19:04N/A1654N/A
14021QUEYROIYvette2:21:45N/A1623N/A
14164EJSMONTMartine2:25:45N/A1578N/A
15894LUDEWIG-JAMESCarolN/AN/A0N/A
1437BOUSQUETHuguetteN/A15860-1586

  Indice de confiance du circuit (moyenne des différences entre CN et score sur la course des 3 à 10 premiers) : 170




 Circuit "H"

Licence Nom Prénom Temps CN
précédent
Score sur
la course
Différence
4374BONNEAUMaxime0:35:4747015485+784
11834BEAUVISAGEAudry0:38:52N/A5050N/A
14909JOLYFrancois0:38:52N/A5050N/A
14782CHARONSimon0:40:06N/A4895N/A
14657ARNOULDLouis0:40:44N/A4819N/A
14451RIBAUDOJasmin0:41:19N/A4750N/A
11655ANDRECamille0:41:20N/A4749N/A
17628MANIERELouis0:42:54N/A4575N/A
10722MAHLERFelix0:43:14N/A4540N/A
14372DUBOISRemi0:44:19N/A4429N/A
14416GIRARDMartial0:44:51N/A4376N/A
12152RAPINRomain0:45:26N/A4320N/A
14296GOYATKevin0:45:54N/A4276N/A
14918ICARDPaul0:47:05N/A4169N/A
6479D'HARREVILLERenaud0:47:43N/A4113N/A
11047ANFOSSIDenis0:48:37N/A4037N/A
9724FENEUILFlorent0:48:51N/A4018N/A
4120TREZEGUETNicolas0:48:5147744018-756
15016GUINOTRémi0:49:30N/A3965N/A
14673LECLERCBenjamin0:49:55N/A3932N/A
8241RAYMONDAUDClement0:50:36N/A3879N/A
8252DAVID-BOUDOUNISelim0:52:24N/A3746N/A
13933BREDOUXGaspard0:53:04N/A3699N/A
4181RAUTURIERBenoit0:53:3841033660-443
15063COUTYGuillaume0:54:00N/A3635N/A
8164CAPBERNMarc0:54:19N/A3614N/A
12041SEUXThomas0:55:14N/A3554N/A
15845BACKSCHEIDERAdrien0:58:57N/A3330N/A
16573PAYSSANValentin0:59:00N/A3327N/A
15277PRETETValentin1:00:57N/A3220N/A
11090LE BORGNEBertrand1:01:14N/A3205N/A
12792MARIONJacques1:02:15N/A3153N/A
15301MAHLAMorad1:10:48N/A2772N/A
17573LOVATOFlorian1:12:53N/A2693N/A
15275VERDINPaul Hugo1:13:58N/A2654N/A
12469MATASSONIRobin1:22:16N/A2386N/A
884GARDEURJulien1:30:1932102173-1037
18686BONANThomasN/AN/A0N/A

  Indice de confiance du circuit (moyenne des différences entre CN et score sur la course des 3 à 10 premiers) : 269




 Circuit "I"

Licence Nom Prénom Temps CN
précédent
Score sur
la course
Différence
8728GAILLARDAlizee0:31:42N/A4928N/A
8550CLOUARDCamille0:32:23N/A4824N/A
9869CORDEIRO MENDESMagalie0:33:09N/A4713N/A
5436FLAMBEAUMathilde0:33:49N/A4620N/A
11069CAPBERNLoic0:34:32N/A4524N/A
13669DESREUMAUXArthur0:35:13N/A4436N/A
11475GODEFROYBruno0:35:52N/A4356N/A
4183RAUTURIERCamille0:36:0945714322-249
9874AVEDIKIANVincent0:37:07N/A4209N/A
10183BODYFlorentin0:37:31N/A4164N/A
8921ROULLEAUXMaeva0:37:33N/A4161N/A
13570SERRANDJonathan0:38:11N/A4092N/A
10733PEZETArnaud0:38:17N/A4081N/A
17576JOLYPhilippe0:38:31N/A4056N/A
8359MONTERRATAmandine0:38:46N/A4030N/A
17392MONTIGAUDThibault0:38:53N/A4018N/A
10745MAINERoxane0:39:14N/A3982N/A
10561DUPOIRIEUXJules0:39:29N/A3957N/A
7715SANDEVOIRClaire0:39:36N/A3945N/A
13554CHATAINGClement0:40:06N/A3896N/A
10743FASTREMaxime0:41:17N/A3784N/A
10310GIROUXThomas0:41:35N/A3757N/A
15787ROCHEFanny0:42:00N/A3720N/A
9427LERICHEClotilde0:42:24N/A3685N/A
17170VUILLEMINGuillaume0:43:05N/A3626N/A
13674BLUMMarie0:43:07N/A3623N/A
15739BELLIOlivier0:43:23N/A3601N/A
13566MAZARSValentin0:44:22N/A3521N/A
10771PORNETJeremie0:44:40N/A3498N/A
10904RAVENELFanny0:45:12N/A3456N/A
6480D'HARREVILLEKenny0:45:46N/A3414N/A
15675BERJOANAdrien0:46:23N/A3368N/A
9439MANSUYP-Yves0:46:33N/A3356N/A
7836PERROCHONCloe0:46:39N/A3349N/A
15170DESREUMAUXVictor0:46:40N/A3348N/A
17655MENDES DE OLIVEIRADavid0:47:02N/A3322N/A
7260SUTTEROlivier0:47:37N/A3281N/A
11707CHAILLARDFabien0:47:55N/A3260N/A
11474LACASSINMilan0:47:57N/A3258N/A
15929GETTENBaptiste0:48:20N/A3232N/A
16550PAGEQuentin0:48:40N/A3210N/A
5638TARDYVictor0:48:48N/A3201N/A
13937ERTELKelly0:48:56N/A3193N/A
7259SUTTERAriane0:49:08N/A3180N/A
17505MAGLIONEJonathan0:49:20N/A3167N/A
15093VILLEDIEURemi0:49:23N/A3164N/A
4182RAUTURIERMaxime0:49:5637153129-586
16751CHAPELOTLucas0:50:12N/A3112N/A
6391BARRIERSimon0:50:27N/A3097N/A
13628SIMONQuentin0:50:53N/A3070N/A
14180PERCHEJulien0:51:42N/A3022N/A
8622BUSSODJessica0:51:47N/A3017N/A
15577TAMISIERAlixia0:52:16N/A2989N/A
16375BREDOUXSacha0:52:56N/A2951N/A
1155DELIValentine0:53:0631102942-168
16050SCHILLINGMarion0:54:12N/A2882N/A
18632CUVILLIERSPerrine0:54:32N/A2865N/A
12357RINGOTAlexis0:55:09N/A2833N/A
13391ROGERAlexandre0:55:59N/A2791N/A
17071VANHAUWAERTClaire0:56:49N/A2750N/A
17154CARESIOHugo0:57:12N/A2731N/A
7218LEROYAgathe0:57:27N/A2719N/A
16826BOISSERIESylvain0:57:39N/A2710N/A
16143WANTIERLoic0:58:16N/A2681N/A
10368SIAUDMarius1:00:14N/A2594N/A
12284GERARDLea1:00:58N/A2563N/A
15767ROUSSEAUMickael1:01:02N/A2560N/A
7831MASSONAude1:02:29N/A2500N/A
12583MAUDETCecile1:02:34N/A2497N/A
17345LARGILLERELucien1:02:37N/A2495N/A
14911LAMINETTEPauline1:03:01N/A2479N/A
8639BILQUEZHugo1:04:00N/A2441N/A
17791PICAZOSilvain1:04:02N/A2440N/A
17082SCHAMBERGERAnne1:04:05N/A2438N/A
13328BOCAUTGabrielle1:04:17N/A2430N/A
15846BACKSCHEIDERMarie1:04:33N/A2420N/A
9686NOY-GSELLJessica1:05:02N/A2402N/A
16330BOPPEsteban1:05:06N/A2400N/A
16825BAYLOTClement1:05:09N/A2398N/A
9171POULAINYannick1:05:36N/A2382N/A
18611LANQUETINCéline1:06:27N/A2351N/A
5464DENAIXMaylis1:07:38N/A2310N/A
16956GALETElisabeth1:09:36N/A2245N/A
17849MONTIGNYMargaux1:10:45N/A2208N/A
17270BENAZET LACARRELaure Emmanuelle1:11:02N/A2199N/A
2794EVENThibault1:24:25N/A1851N/A
18390BAYLOTAntoine1:36:01N/A1627N/A
16990MARIEBertrand2:00:21N/A1298N/A
16108BURIDANYoannN/AN/A0N/A
17231PERINPhilippeN/AN/A0N/A

  Indice de confiance du circuit (moyenne des différences entre CN et score sur la course des 3 à 10 premiers) : 80




 Circuit "Ibis"

Licence Nom Prénom Temps CN
précédent
Score sur
la course
Différence
9932BASSETIsia0:31:27N/A4509N/A
9115RAYMONDAUDLea0:34:54N/A4063N/A
15847BACKSCHEIDEREmilie0:35:00N/A4051N/A
8108LELOUPAnouk0:35:48N/A3961N/A
9976POINSIGNONElise0:35:53N/A3951N/A
8922ROULLEAUXNoemie0:37:05N/A3824N/A
11307BEAUVISAGELauriane0:37:30N/A3781N/A
1156DELIMathilde0:38:3534273675+248
13076MARCHEGAYTiphane0:41:56N/A3381N/A
9897MORELHelene0:43:21N/A3271N/A
12237SUDRESMathilde0:43:30N/A3260N/A
17067MANIEREMarie0:45:16N/A3132N/A
10077POURREMarion0:45:59N/A3084N/A
15582CIRAUDOAndrea0:47:53N/A2961N/A
12768LOGELucie0:49:11N/A2883N/A
6706LETOUBLONAndrea0:49:24N/A2870N/A
6779MAKOVICKAElsa0:50:51N/A2788N/A
17531CHANDEYSSONLaurie0:52:54N/A2680N/A
7045LOTERIELaurine0:53:30N/A2650N/A
17681MAIRECamille0:55:29N/A2556N/A
18400FALQUEEmilie0:57:21N/A2472N/A
15479MORELEugenie0:57:23N/A2471N/A
11328GRAUERHeloise0:59:19N/A2390N/A
16329BOPPM-Charlotte1:14:44N/A1897N/A
14738BIHELJulia1:18:39N/A1803N/A
16070RICHINMarion1:18:53N/A1797N/A
17027CHAVANCEManon1:20:29N/A1762N/A
10383DELENNESybille1:22:03N/A1728N/A

  Indice de confiance du circuit (moyenne des différences entre CN et score sur la course des 3 à 10 premiers) : 143




 Circuit "K"

Licence Nom Prénom Temps CN
précédent
Score sur
la course
Différence
11355BASSETMarian0:22:45N/A4447N/A
11092HUROTBenjamin0:26:15N/A3854N/A
11061SANDEVOIRLuc0:28:27N/A3556N/A
8551CLOUARDLucile0:28:58N/A3493N/A
10309ABELBenoit0:29:14N/A3461N/A
10384DELENNEAdrien0:29:17N/A3455N/A
18660RIONicolas0:30:54N/A3274N/A
12769LOGEPaul0:31:07N/A3251N/A
18393BAYLOTBaptiste0:31:38N/A3198N/A
11904DELENNEWilliam0:31:59N/A3163N/A
8975PERRINArnaud0:32:26N/A3119N/A
7672DEVRIEUXNais0:33:20N/A3035N/A
16226VERCAUTERENThomas0:33:40N/A3005N/A
13567MAZARSThomas0:35:05N/A2884N/A
10311GIROUXBaptiste0:36:10N/A2797N/A
12094FONTESLeo0:36:22N/A2782N/A
18120CHABANCEThomas0:37:12N/A2720N/A
15018GUINOTMarion0:37:26N/A2703N/A
7153FIGUIERERomain0:38:03N/A2659N/A
16982SERRANDArthur0:38:16N/A2644N/A
10303BEAUDENONCedric0:38:49N/A2606N/A
15550MOROUXMargot0:39:32N/A2559N/A
17707DI-BRANGOSebastien0:39:45N/A2545N/A
10396HABERKORNChloé0:40:06N/A2523N/A
18432HUMMEL-AZAISMargaux0:40:23N/A2505N/A
11305NOY-GSELLArielle0:41:07N/A2461N/A
9369TREZEGUETHugo0:41:56N/A2413N/A
9428LERICHEQuentin0:42:11N/A2398N/A
9964MONTERRATLaurene0:45:13N/A2238N/A
4879RAUTURIERQuentin0:45:14N/A2237N/A
16153TOMEO-ELOYEnzo0:46:10N/A2191N/A
11309BOULESTREAUZelie0:46:35N/A2172N/A
15412ASTRADEBaptiste0:49:43N/A2035N/A
6487MOLINIERCaroline0:49:47N/A2032N/A
15885GALETClement0:53:52N/A1878N/A
11559ROULLEAUXJulie0:54:23N/A1860N/A
14681ROGERAymeric0:55:21N/A1828N/A
15276VERDINAlix0:58:46N/A1722N/A
10485DODIEROrianne0:58:52N/A1719N/A
13627BALASKOVICTom0:59:04N/A1713N/A
17708XIMENEZVincent1:00:20N/A1677N/A
17344LARGILLEREEugenie1:01:06N/A1656N/A
13638KORCHAKNathalie1:01:37N/A1642N/A
17418LAFARGEEmeline1:03:03N/A1605N/A
16048SARIONEmilie1:03:25N/A1595N/A
10758BESTELSandra1:07:15N/A1504N/A
7711DENAIXLou1:08:42N/A1473N/A
14573JACQUETMartin1:09:06N/A1464N/A
16357MAISONNEUVEValentine1:10:37N/A1433N/A
12688POUCHATJonathan1:20:12N/A1262N/A
19011PEYCLITHugo1:51:52N/A904N/A
10369SIAUDUlysseN/AN/A0N/A

  Indice de confiance du circuit (moyenne des différences entre CN et score sur la course des 3 à 10 premiers) : 143




 Circuit "Jal"

Licence Nom Prénom Temps CN
précédent
Score sur
la course
Différence
17171VUILLEMINPauline0:11:31N/A3024N/A
17710PICHARDLucien0:14:24N/A2418N/A
18782HINAULTAlban0:14:57N/A2329N/A
18797HINAULTTristan0:15:13N/A2288N/A
11395HABERKORNGuilhem0:15:24N/A2261N/A
16020LETOUBLONThomas0:15:28N/A2251N/A
15418ROCHEMaxime0:16:21N/A2130N/A
10087FIGUIERELucile0:17:13N/A2023N/A
14215VILLARZoe0:17:26N/A1997N/A
14523BUIATTIVincent0:17:44N/A1964N/A
16043MONTEMONTLucas0:18:04N/A1927N/A
18253THOMASMarie0:19:02N/A1829N/A
15556PERCHEBenoit0:19:04N/A1826N/A
18172SANDEVOIRAude0:19:05N/A1825N/A
16649WYMERKylian0:19:59N/A1743N/A
12770LOGEJeanne0:20:10N/A1727N/A
16456PICHARDAdrien0:21:05N/A1652N/A
16040LEMBEZATMatthieu0:21:09N/A1646N/A
18699VILLARAlix0:22:56N/A1518N/A
17095SOGNOVincent0:25:54N/A1344N/A
18261SELLIERMathis0:26:02N/A1338N/A
18119PERRINSimon0:26:10N/A1331N/A
17308BESTELArnault0:26:10N/A1331N/A
16817CALANDRYCecile0:27:29N/A1267N/A
16865RODRIGUEZLucas0:28:17N/A1231N/A
18249DELENNETommy0:29:51N/A1167N/A
16836MONTEMONTClement0:36:13N/A961N/A
17229PERINMathieu0:44:09N/A789N/A
17230PERINRemi0:44:21N/A785N/A
17030DELENNEJoannaN/AN/A0N/A
14855LIEGEOISMaheN/AN/A0N/A
15184BRASSARTAurelienN/AN/A0N/A

  Indice de confiance du circuit (moyenne des différences entre CN et score sur la course des 3 à 10 premiers) : 155




 Circuit "L"

Licence Nom Prénom Temps CN
précédent
Score sur
la course
Différence
16228VERCAUTERENAntoine0:16:24N/A3249N/A
14950SOGNOMartin0:18:08N/A2939N/A
12358RINGOTPaul0:18:24N/A2896N/A
12709BEAUVIRMaelle0:20:16N/A2629N/A
14751DOURDOU-VARRONMalo0:21:00N/A2537N/A
11310BOULESTREAUElouan0:21:41N/A2457N/A
13329TANGUYLeo0:22:15N/A2395N/A
8976PERRINMathieu0:22:22N/A2382N/A
17530CHANDEYSSONLéa0:23:08N/A2303N/A
13477DIETSCHJoel0:24:21N/A2188N/A
13800DELENNECamillia0:24:30N/A2175N/A
13758CREFCOEURLievin0:24:34N/A2169N/A
12398BASSETJuliette0:26:01N/A2048N/A
18213LARGILLÈRENicolas0:26:08N/A2039N/A
16983SERRANDTanguy0:27:20N/A1949N/A
13396BEAUVISAGEQuentin0:28:25N/A1875N/A
16864BRESOLINMaxime0:29:26N/A1810N/A
16862BRESOLINAlexis0:29:53N/A1783N/A
13926GODEFROYSimon0:30:00N/A1776N/A
14273POURREJeremi0:30:02N/A1774N/A
12095FONTESOlivier0:31:45N/A1678N/A
16837WALTZINGOreste0:33:42N/A1581N/A
10312GIROUXLuc0:34:21N/A1551N/A
12587GREBELLouise0:35:02N/A1521N/A
15417ROCHEJonathan0:35:46N/A1490N/A
16555PICAZOMarie0:36:09N/A1474N/A
9939TESTOUDLouis0:36:28N/A1461N/A
15055LONGAAnael0:40:22N/A1320N/A
18252THOMASGuillaume0:41:11N/A1294N/A
16038LEMBEZATMaeva0:42:18N/A1260N/A
9940TESTOUDSarah0:44:50N/A1189N/A
15413ASTRADEGaspard0:45:20N/A1175N/A
15676BERJOANJulia0:46:24N/A1148N/A
16331CAVARROCHugo0:47:04N/A1132N/A
12045CHAILLARDDana0:52:59N/A1006N/A
2744VUILLETGermaine1:12:23846736-110
15327HUROTEdenN/AN/A0N/A

  Indice de confiance du circuit (moyenne des différences entre CN et score sur la course des 3 à 10 premiers) : 166






 Retour